Regional Weather Roundup
Issued by NWS

Home | Current Version | Previous Version | Graphics & Text | Print | Product List | Glossary On
Versions: 1 2 3 4 5 6 7 8 9 10 11 12 13 14 15 16 17 18 19 20 21 22 23 24 25 26 27 28 29 30 31 32 33 34 35 36 37 38 39 40 41 42 43 44 45 46 47 48 49 50
000
ASUS43 KLMK 282102
RWRKY
KENTUCKY REGIONAL WEATHER ROUNDUP
NATIONAL WEATHER SERVICE LOUISVILLE KY
500 PM EDT WED SEP 28 2016

NOTE "FAIR" INDICATES FEW OR NO CLOUDS BELOW 12,000 FEET
WITH NO SIGNIFICANT WEATHER AND/OR OBSTRUCTIONS TO VISIBILITY.

KYZ001>023-026-027-061>063-070>075-282200-
WESTERN AND SOUTH CENTRAL KENTUCKY

CITY           SKY/WX    TMP DP  RH WIND       PRES   REMARKS
PADUCAH        MOSUNNY   74  47  38 N14G21    29.93R
HENDERSON      PTSUNNY   72  45  37 NW15G22   29.91R
OWENSBORO      NOT AVBL
HOPKINSVILLE   CLOUDY    68  55  63 N6G20     29.89R
BOWLING GREEN  CLOUDY    64  58  80 VRB7      29.89R
GLASGOW        NOT AVBL
$$

KYZ024-025-028>034-038-045-046-053-282200-
NORTH CENTRAL KENTUCKY

CITY           SKY/WX    TMP DP  RH WIND       PRES   REMARKS
LOUISVILLE/SDF MOSUNNY   66  57  72 W14       29.86R
LOUISVILLE/LOU MOSUNNY   64  57  78 W10       29.87R
FORT KNOX      MOSUNNY   63  57  82 W14       29.86R
$$

KYZ035>037-039>044-047>052-055>060-089>105-282200-
NORTHEAST KENTUCKY

CITY           SKY/WX    TMP DP  RH WIND       PRES   REMARKS
LEXINGTON      RAIN      58  55  90 W7G20     29.89R FOG
COVINGTON      CLOUDY    60  57  89 SW6       29.87R
FRANKFORT      RAIN      59  56  89 S3        29.86F
$$

KYZ054-064>069-076>088-106>120-282200-
SOUTHEAST KENTUCKY

CITY           SKY/WX    TMP DP  RH WIND       PRES   REMARKS
JACKSON        SUNNY     78  48  34 S10G20    29.85F
LONDON         MOSUNNY   80  43  26 SW15G23   29.84F
SOMERSET       CLOUDY    77  43  29 SW8G18    29.85R
MIDDLESBORO    SUNNY     80  48  32 SW10      29.88F
MONTICELLO     MOCLDY    77  47  34 SW15G29   29.85F
$$




USA.gov is the U.S. government's official web portal to all federal, state and local government web resources and services.